Regional Weather Roundup
Issued by NWS Grand Forks, ND

Home | Current Version | Previous Version | Text Only | Print | Product List | Glossary Off
Versions: 1 2 3 4 5 6 7 8 9 10 11 12 13 14 15 16 17 18 19 20 21 22 23 24 25 26 27 28 29 30 31 32 33 34 35 36 37 38 39 40 41 42 43 44 45 46 47 48 49 50

000
ASUS43 KFGF 132310
RWRFGF
PRAIRIE TO PINES  WEATHER ROUNDUP
NATIONAL WEATHER SERVICE EASTERN NORTH DAKOTA/GRAND FORKS ND
600 PM CDT SUN JUL 13 2014

 **SATELLITE DATA USED TO AUGMENT SKY COVER AT AUTOMATED STATIONS**
 *****  WEATHER ACROSS EASTERN NORTH DAKOTA  *****

CITY           SKY/WX    TMP DP  RH WIND       PRES   REMARKS
GRAND FORKS    CLOUDY    66  49  54 NW14      29.92R
GRAND FRKS AFB MOSUNNY   66  47  49 N15       29.93S
GRAND FRKS NWS   N/A     66 N/A N/A N7          N/A
DEVILS LAKE    CLOUDY    66  45  45 NW18G28   29.96R
FARGO          CLOUDY    72  45  37 NW24      29.91R
WAHPETON ARPT  PTCLDY    73  36  25 NW22G28   29.92S
$$

 ***** WEATHER ACROSS CENTRAL AND WESTERN NORTH DAKOTA  *****

CITY           SKY/WX    TMP DP  RH WIND       PRES   REMARKS
BISMARCK       SUNNY     75  41  29 NW17G32   30.05S
MINOT          MOSUNNY   70  43  37 NW25G31   30.03F
JAMESTOWN      CLOUDY    70  44  39 NW21G33   29.97S
MINOT AFB      MOSUNNY   69  45  41 NW24      30.03S
GARRISON         N/A     72  42  34 NW21G32   30.05F
WILLISTON      SUNNY     77  34  21 N18G29    30.11F
DICKINSON      SUNNY     74  38  27 NW21G26   30.10S
HETTINGER      SUNNY     76  40  27 N15       30.12S
$$

 *****  OTHER AIRPORT OBSERVATIONS IN OUR AREA  *****

CITY           SKY/WX    TMP DP  RH WIND       PRES   REMARKS
WALHALLA       NOT AVBL
GRAFTON AIRPOR MOCLDY    66  48  52 NW10      29.92S
VALLEY CITY AR CLOUDY    68  46  45 NW15G24   29.95S
CANDO          CLOUDY    63  46  55 N21G26    29.99S
CAVALIER APRT  MOCLDY    64  46  52 NW16G24   29.93R
GWINNER        CLEAR     75  43  31 NW16G25   29.96S
SHEYENNE NWR     N/A     75  42  30 NW13      29.95S
ROLLA          CLOUDY    61  45  55 NW18G29   30.01R
 ***** THE ABOVE OBSERVATIONS ARE NON NWS ARE NOT QUALITY
       CONTROLLED AND MAY MIS-REPORT RAIN FOR SNOW...
$$

  *****  WEATHER ACROSS NORTHERN MINNESOTA  *****

CITY           SKY/WX    TMP DP  RH WIND       PRES   REMARKS
FLAG ISLAND    LGT RAIN  55  52  88 W15       29.82S
WARROAD        PTSUNNY   55  52  88 W15       29.87S
ROSEAU         PTSUNNY   59  52  77 NW16G24   29.88R
HALLOCK        MOSUNNY   63  48  59 NW17      29.91R
THF RVR FALLS  PTSUNNY   61  50  67 NW15      29.91R
BAUDETTE       CLOUDY    58  52  80 NW9       29.86S
WASKISH        CLOUDY    55  52  88 NW10G17   29.88S
CROOKSTON      PTSUNNY   66  48  52 NW20G28   29.92R
$$
  *****  WEATHER ACROSS CENTRAL AND WEST MINNESOTA  *****

CITY           SKY/WX    TMP DP  RH WIND       PRES   REMARKS
FOSSTON        PTSUNNY   64  46  52 NW15G23   29.90F
BEMIDJI        CLOUDY    64  47  55 NW13      29.88F
PARK RAPIDS    CLOUDY    67  46  47 NW17      29.89S
ELBOW LAKE     FAIR      72  45  37 NW16G24   29.92S
WADENA         MOSUNNY   68  46  45 NW13G20   29.90S
DETROIT LAKES  SUNNY     68  46  45 NW16G23   29.92S
MOORHEAD       MOSUNNY   72  37  28 NW18G29   29.92R
FERGUS FALLS   MOSUNNY   72  37  28 NW20G26   29.90F
MORRIS MN      SUNNY     73  45  35 NW15G23   29.92F
STAPLES        CLOUDY    70  45  40 NW12      29.90S
$$
  *****  WEATHER ELSEWHERE ACROSS MINNESOTA  *****

CITY           SKY/WX    TMP DP  RH WIND       PRES   REMARKS
DULUTH         PTSUNNY   67  45  45 W13G25    29.84S
INTRNTL FALLS  LGT RAIN  55  51  86 W12       29.83S
ELY            PTSUNNY   57  52  82 W8        29.82R
CLOQUET        CLOUDY    66  45  45 W6        29.86R
WHEATON        SUNNY     72  45  37 W14G20    29.95S
BRAINERD       CLOUDY    75  45  34 W12       29.88F
HIBBING        LGT RAIN  61  51  70 W7G23     29.84S
ALEXANDRIA     SUNNY     73  42  32 NW17G26   29.93F
SAINT CLOUD    MOSUNNY   76  45  33 NW15      29.89F
MINNEAPOLIS    MOSUNNY   76  51  41 NW13      29.89S
$$

  *****  WEATHER ACROSS SOUTH DAKOTA  *****

CITY           SKY/WX    TMP DP  RH WIND       PRES   REMARKS
SIOUX FALLS    MOSUNNY   81  56  42 NW17      29.96F
BROOKINGS      NOT AVBL
WATERTOWN      SUNNY     74  43  32 NW15G22   29.98S
HURON          SUNNY     79  50  36 N18       29.98S
SISSETON         N/A     75  44  33 NW15G22   29.93F
ABERDEEN       SUNNY     76  40  27 NW21G28   29.99S
MITCHELL       SUNNY     82  56  40 NW16G25   29.98S
PIERRE         SUNNY     80  56  43 NW18      30.03S
MOBRIDGE       SUNNY     77  46  33 NW16G24   30.01F
RAPID CITY     PTSUNNY   79  56  45 NE10      30.11F
$$

  *****  SOME WEATHER IN NEARBY STATES *****

CITY           SKY/WX    TMP DP  RH WIND       PRES   REMARKS
GLASGOW MT     NOT AVBL
GREAT FALLS MT NOT AVBL
CHEYENNE WY    MOSUNNY   76  53  44 CALM      30.31F
SCOTTSBLUFF NE MOSUNNY   87  56  34 NW9       30.16S
OMAHA NE       PTSUNNY   83  66  56 CALM      29.98S
DES MOINES IA  PTSUNNY   83  62  49 N8        29.95F
DAVENPORT IA     N/A     74  64  71 NW6       29.93F
CHICAGO IL     MOSUNNY   83  61  47 W10       29.87F
EAU CLAIRE WI  PTSUNNY   73  49  42 W12       29.88F
LA CROSSE WI   SUNNY     79  48  33 W14       29.90S
$$

  *****  SOME NATIONAL WEATHER *****

CITY           SKY/WX    TMP DP  RH WIND       PRES   REMARKS
LA GUARDIA NY  PTSUNNY   77  70  79 S14       29.90F
RALEIGH NC     MOSUNNY   90  66  45 S9        30.01S HX  92
ATLANTA GA     PTSUNNY   86  70  58 S3        30.04F HX  90
NEW ORLEANS LA MOSUNNY   88  71  57 CALM      30.03R HX  94
OKLAHOMA CITY  MOSUNNY   98  58  26 S10       29.96S HX  97
ALBUQUERQUE NM CLOUDY    84  56  38 E7        30.20F THUNDER
SALT LAKE CITY MOSUNNY   97  43  15 NW12      30.10F HX  93
LOS ANGELES CA MOSUNNY   75  62  64 W10       29.88F
BOISE ID       NOT AVBL
SEATTLE WA     CLOUDY    82  58  43 W8        30.06F
$$

*** WEATHER ACROSS MANITOBA...SASKATCHEWAN AND ONTARIO ***
                ***ONTARIO***

CITY           SKY/WX    TMP DP  RH WIND       PRES   REMARKS
GERALDTON      NOT AVBL
THUNDER BAY    NOT AVBL
SIOUX LOOKOUT  NOT AVBL
TORONTO        NOT AVBL
BIG TROUT LK   NOT AVBL
PICKLE LAKE    NOT AVBL
DRYDEN         NOT AVBL
KENORA         NOT AVBL
$$
                *** MANITOBA***

CITY           SKY/WX    TMP DP  RH WIND       PRES   REMARKS
BRANDON        NOT AVBL
DAUPHIN        PTSUNNY   61  48  63 NW17G26   29.99S
ISLAND LAKE    PTSUNNY  N/A N/A N/A N7          N/A
PILOT MOUND    NOT AVBL
THE PAS        NOT AVBL
THOMPSON       NOT AVBL
WINNIPEG       NOT AVBL
$$
                ***SASKATCHEWAN***

CITY           SKY/WX    TMP DP  RH WIND       PRES   REMARKS
ESTEVAN        NOT AVBL
KINDERSLEY     NOT AVBL
LLOYDMINSTER   NOT AVBL
PRINCE ALBERT  NOT AVBL
REGINA         NOT AVBL
YORKTON        NOT AVBL
N. BATTLEFORD  NOT AVBL
LA RONGE       NOT AVBL
SASKATOON      NOT AVBL
SWIFT CURRENT  NOT AVBL
$$
NOTE: THESE ARE AUTOMATED STATIONS WITH LIMITED QUALITY CONTROL
      "FAIR" INDICATES FEW OR NO CLOUDS BELOW 12,000 FEET WITH NO
      SIGNIFICANT WEATHER AND/OR OBSTRUCTIONS TO VISIBILITY.
      SKY/WX - SKY CONDITION AND SIGNIFICANT WEATHER.
      TMP - AIR TEMPERATURE.    DP   - DEWPOINT TEMPERATURE.
      RH  - RELATIVE HUMIDITY.  PRES - PRESSURE.
      HX  - HEAT INDEX.         WCI  - WIND CHILL INDEX.
$


USA.gov is the U.S. government's official web portal to all federal, state and local government web resources and services.